Location: Perryvale
(54.4667°N, 113.3833°W)
Time: 22:15:42
(UTC+00:00)

Vanguard 1 - Pass Details

Date: 26 May 2024
Orbit: 652 x 3825 km, 34.2° (Epoch: 13 June)

Event Time Altitude Azimuth Distance (km) Brightness Sun altitude
Rises 06:59:19 0° 257° (WSW) 5,236 13.7 -14.0°
Reaches altitude 10° 07:02:52 10° 247° (WSW) 4,648 13.3 -14.1°
Maximum altitude 07:14:03 30° 194° (SSW) 4,329 12.8 -14.2°
Drops below altitude 10° 07:30:13 10° 144° (SE) 6,731 13.8 -14.3°
Sets 07:36:57 0° 136° (SE) 7,930 14.3 -14.3°
